Regional Weather Roundup
Issued by NWS

Home | Current Version | Previous Version | Text Only | Print | Product List | Glossary Off
Versions: 1 2 3 4 5 6 7 8 9 10 11 12 13 14 15 16 17 18 19 20 21 22 23 24 25 26 27 28 29 30 31 32 33 34 35 36 37 38 39 40 41 42 43 44 45 46 47 48 49 50

000
ASUS43 KFSD 132302
RWRSD

WEATHER ROUNDUP FOR SOUTH DAKOTA
NATIONAL WEATHER SERVICE SIOUX FALLS SD
500 PM CST SAT FEB 13 2016

NOTE: "FAIR" INDICATES FEW OR NO CLOUDS BELOW 12,000 FEET WITH NO
SIGNIFICANT WEATHER AND/OR OBSTRUCTIONS TO VISIBILITY.


SDZ001>005-009-010-012>017-140000-
NORTHWEST AND NORTH CENTRAL SOUTH DAKOTA

CITY           SKY/WX    TMP DP  RH WIND       PRES   REMARKS
BUFFALO          N/A     32  29  88 SW10      29.77R WCI  24
FAITH            N/A     30  26  85 S14G24    29.78S WCI  19
MOBRIDGE       CLOUDY    22  16  78 SE23G33   29.87F WCI   6
$$

SDZ012>016-024>037-041>051-057-063-072>074-140000-
SOUTHWEST AND SOUTH CENTRAL SOUTH DAKOTA

CITY           SKY/WX    TMP DP  RH WIND       PRES   REMARKS
RAPID CTY ARPT SUNNY     50  33  52 S13       29.70F
PIERRE         FRZ RAIN  27  25  92 SE23G29   29.89F WCI  12
CUSTER         SUNNY     51  23  33 W12G32    29.73F
ELLSWORTH AFB  SUNNY     51  33  50 S13       29.69F
PHILIP         SUNNY     44  31  60 SE21G28   29.76F
PINE RIDGE     SUNNY     48  34  58 S14       29.74F
WINNER         CLOUDY    30  19  63 S16G26    29.95F WCI  19
$$

SDZ004>011-016>023-039-040-140000-
NORTHEAST SOUTH DAKOTA

CITY           SKY/WX    TMP DP  RH WIND       PRES   REMARKS
ABERDEEN       CLOUDY    16   5  62 S24G32    30.12F WCI  -2
WATERTOWN      CLOUDY     9  -2  61 SE18G30   30.13F WCI -10
BROOKINGS      CLOUDY     9   0  67 SE18G26   30.19F WCI -10
SISSETON         N/A     10   2  69 S22       30.20F WCI -10
$$

SDZ017-020-022-023-036>040-048>070-140000-
SOUTHEAST SOUTH DAKOTA

CITY           SKY/WX    TMP DP  RH WIND       PRES   REMARKS
SIOUX FALLS    CLOUDY    11   1  64 SE15      30.24F WCI  -5
HURON          CLOUDY    13   4  67 S23G33    30.13F WCI  -6
MITCHELL       CLOUDY    14   7  73 SE29G35   30.16F WCI  -7
YANKTON        CLOUDY    12   5  73 SE21      30.21F WCI  -6
$$

ABBREVIATIONS USED IN REMARKS
   TC - TEMPERATURE IN CELSIUS
  WCI - WIND CHILL INDEX
   HX - HEAT INDEX
  VSB - VISIBILITY




USA.gov is the U.S. government's official web portal to all federal, state and local government web resources and services.